Home > Weather > Ittoqqortoormiit > Past weeks

Flag for Greenland Weather for the Past 2 Weeks in Ittoqqortoormiit, Greenland

Now
0 °F

Overcast.


Feels Like: 0 °F
Forecast: N/A
Wind: 2 mph from Southeast

Location: Scoresbysund

Current Time: Feb 10, 2016 at 8:19:50 PM

Latest Report: Feb 10, 2016 at 7:00 PM


Visibility: 31 mi

Pressure: 30.00 "Hg

Humidity: 81%

Dew point: -5 °F

Location of IttoqqortoormiitLocation

Historic Weather in Ittoqqortoormiit — Graph

°F

Ittoqqortoormiit Temperature Yesterday

Maximum temperature yesterday: 5 °F (at 3:00 PM)
Minimum temperature yesterday: 0 °F (at 5:00 AM)
Average temperature yesterday: 3 °F

High & Low Weather Summary for the Past Weeks

 TemperatureHumidityPressure
High30 °F (Jan 27, 3:00 AM)100% (Jan 27, 2:00 AM)30.25 "Hg (Jan 27, 2:00 AM)
Low-5 °F (Feb 8, 8:00 AM)39% (Jan 31, 11:00 AM)28.47 "Hg (Jan 27, 4:00 AM)
Average12 °F69%29.62 "Hg
* Reported Jan 26 6:00 PM — Feb 10 6:00 PM, Ittoqqortoormiit, Weather by CustomWeather, © 2016

Note: Actual official high and low records may vary slightly from our data, if they occured in-between our weather recording intervals... More about our weather records

Advertising

Ittoqqortoormiit Weather History for the Previous 24 Hours

 ConditionsComfort  
Time TempWeatherWind HumidityBarometerVisibility
6:00 PM
Wed, Feb 10
0 °FOvercast.1 mph79%30.01 "Hg31 mi
5:00 PM0 °FOvercast.No wind79%30.01 "Hg31 mi
4:00 PM0 °FSnow flurries. Overcast.2 mph82%30.01 "Hg25 mi
3:00 PM0 °FLight snow. Overcast.5 mph82%30.02 "Hg17 mi
2:00 PM0 °FOvercast.2 mph82%30.02 "Hg25 mi
1:00 PM-1 °FOvercast.3 mph82%30.02 "Hg31 mi
12:00 PM0 °FOvercast.3 mph83%30.02 "Hg31 mi
11:00 AM-2 °FOvercast.6 mph84%30.01 "Hg31 mi
10:00 AM-2 °FOvercast.3 mph87%30.00 "Hg31 mi
9:00 AM-3 °FOvercast.3 mph87%30.00 "Hg31 mi
8:00 AM-3 °FPassing clouds.3 mph88%30.00 "Hg31 mi
7:00 AM-2 °FSnow flurries. Low clouds.5 mph87%29.99 "Hg31 mi
6:00 AM0 °FOvercast.6 mph82%29.96 "Hg31 mi
5:00 AM-1 °FOvercast.14 mph72%29.95 "Hg31 mi
4:00 AM-1 °FOvercast.3 mph86%29.94 "Hg31 mi
2:00 AM0 °FClear.2 mph87%29.92 "Hg31 mi
10:00 PM
Tue, Feb 9
2 °FClear.1 mph74%29.88 "Hg31 mi
8:00 PM3 °FClear.7 mph59%29.87 "Hg31 mi
Weather by CustomWeather, © 2016

See weather overviewHow to use our weather pages